Weather reports worldwide

Advertisment
Miami, fl, United States of America (2074031): temperature & dewpoint: 31.05.2020 06:00:00 - 06.06.2020 06:00:00 (EDT)Miami, fl, United States of America (2074031): wind speed & gusts: 31.05.2020 06:00:00 - 06.06.2020 06:00:00 (EDT)Miami, fl, United States of America (2074031): wind direction: 31.05.2020 06:00:00 - 06.06.2020 06:00:00 (EDT)Miami, fl, United States of America (2074031): reduced air pressure: 31.05.2020 06:00:00 - 06.06.2020 06:00:00 (EDT)Miami, fl, United States of America (2074031): visibility: 31.05.2020 06:00:00 - 06.06.2020 06:00:00 (EDT)Miami, fl, United States of America (2074031): precipitation: 31.05.2020 06:00:00 - 06.06.2020 06:00:00 (EDT)
Date & Time tt [°C] td [°C] ff [km/h] ff [kn] fx [km/h] fx [kn] dd ppp [hPa] vv [km] rr [mm]
06.06.2020 06:00:00 28,3 26,1 16 9 - - ESE 1014,2 16 -
06.06.2020 05:00:00 28,3 26,1 16 9 - - ESE 1013,8 16 0,0
06.06.2020 04:00:00 28,3 26,7 13 7 - - ESE 1014,2 15 0,0
06.06.2020 03:00:00 28,3 26,7 15 8 - - ESE 1014,6 15 0,5
06.06.2020 02:00:00 28,3 26,7 22 12 - - ESE 1015,0 15 0,5
06.06.2020 01:00:00 28,3 26,1 13 7 - - ESE 1015,7 16 -
06.06.2020 00:00:00 28,9 26,1 15 8 - - ESE 1016,1 16 -
05.06.2020 23:00:00 28,3 25,6 15 8 - - ESE 1016,3 16 -
05.06.2020 22:00:00 28,3 25,6 13 7 - - ESE 1016,1 16 -
05.06.2020 21:00:00 28,9 26,1 13 7 - - ESE 1015,8 16 -
05.06.2020 20:00:00 29,4 25,6 15 8 - - SE 1015,8 16 -
05.06.2020 19:00:00 29,4 25,6 15 8 - - ESE 1015,2 16 -
05.06.2020 18:00:00 29,4 25,6 16 9 - - SE 1015,0 16 -
05.06.2020 17:00:00 30,0 25,6 16 9 - - SE 1014,8 16 0,0
05.06.2020 16:00:00 29,4 26,7 21 11 - - SSE 1014,9 16 0,0
05.06.2020 15:00:00 30,0 26,1 22 12 - - SE 1014,8 16 -
05.06.2020 14:00:00 31,1 26,1 26 14 - - SE 1015,5 16 0,0
05.06.2020 13:00:00 30,0 26,7 18 10 - - SE 1016,4 13 0,0
05.06.2020 12:00:00 31,7 26,1 22 12 - - SSE 1016,9 16 -
05.06.2020 11:00:00 31,1 26,1 22 12 - - SE 1016,8 16 -
05.06.2020 10:00:00 30,6 26,1 22 12 - - SE 1016,7 16 -
05.06.2020 09:00:00 29,4 26,7 16 9 - - SE 1016,6 16 -
05.06.2020 08:00:00 28,3 26,1 11 6 - - ESE 1015,9 16 -
05.06.2020 07:00:00 26,7 25,6 8 4 - - ESE 1015,4 16 -
05.06.2020 06:00:00 27,8 25,6 8 4 - - SE 1015,3 16 -
05.06.2020 05:00:00 27,8 25,6 9 5 - - SE 1015,2 10 -
05.06.2020 04:00:00 26,7 25,0 9 5 - - E 1014,6 16 -
05.06.2020 03:00:00 27,2 25,0 8 4 - - SE 1015,0 16 -
05.06.2020 02:00:00 27,8 25,0 11 6 - - SE 1015,6 16 -
05.06.2020 01:00:00 27,2 25,0 11 6 - - SE 1016,3 16 -
05.06.2020 00:00:00 25,6 23,9 9 5 - - E 1016,4 16 -
04.06.2020 23:00:00 25,6 24,4 9 5 - - SE 1016,5 10 -
04.06.2020 22:00:00 26,1 23,9 5 3 - - ENE 1016,5 16 -
04.06.2020 21:00:00 26,7 23,9 0 0 - - N 1016,2 16 -
04.06.2020 20:00:00 27,2 23,3 9 5 - - ESE 1015,6 16 -
04.06.2020 19:00:00 27,2 24,4 9 5 - - E 1014,8 16 -
04.06.2020 18:00:00 27,2 24,4 8 4 - - SE 1014,9 16 -
04.06.2020 17:00:00 26,7 24,4 16 9 - - SSE 1014,7 16 0,0
04.06.2020 16:00:00 26,1 25,0 11 6 - - SSE 1014,4 16 1,3
04.06.2020 15:00:00 25,0 22,8 16 9 - - S 1015,8 4,8 0,5
04.06.2020 14:00:00 28,9 23,3 21 11 - - S 1015,6 16 -
04.06.2020 13:00:00 28,9 23,9 24 13 - - SSE 1016,5 16 -
04.06.2020 12:00:00 29,4 23,9 15 8 - - S 1016,0 16 -
04.06.2020 11:00:00 27,8 23,3 8 4 - - SSE 1015,3 16 -
04.06.2020 10:00:00 25,6 21,1 11 6 - - SE 1015,7 16 -
04.06.2020 09:00:00 26,7 24,4 0 0 - - N 1015,1 16 -
04.06.2020 08:00:00 24,4 23,3 5 3 - - E 1014,4 16 -
04.06.2020 07:00:00 23,9 22,8 9 5 - - NE 1014,1 16 0,0
04.06.2020 06:00:00 23,9 22,8 5 3 - - SE 1014,2 16 1,8
04.06.2020 05:00:00 23,9 22,8 8 4 59 32 SE 1014,7 16 0,0
04.06.2020 04:00:00 25,0 23,9 37 20 50 27 S 1014,0 1,2 12,2
04.06.2020 03:00:00 25,0 23,9 5 3 - - W 1014,0 16 -
04.06.2020 02:00:00 25,6 24,4 0 0 - - N 1014,7 16 -
04.06.2020 01:00:00 25,0 23,9 8 4 - - E 1015,2 16 0,0
04.06.2020 00:00:00 24,4 23,9 9 5 - - E 1015,4 16 -
03.06.2020 23:00:00 24,4 23,3 8 4 - - E 1015,5 16 -
03.06.2020 22:00:00 24,4 23,3 8 4 - - W 1015,7 16 0,3
03.06.2020 21:00:00 24,4 22,8 0 0 - - N 1015,2 16 0,0
03.06.2020 20:00:00 24,4 23,9 11 6 - - NNW 1015,2 16 7,1
03.06.2020 19:00:00 26,1 23,9 9 5 - - N 1014,4 4,0 1,0
03.06.2020 18:00:00 28,3 24,4 9 5 - - SE 1014,4 16 -
03.06.2020 17:00:00 28,3 24,4 11 6 - - ESE 1014,1 16 0,0
03.06.2020 16:00:00 28,3 23,3 11 6 - - SE 1014,6 16 0,0
03.06.2020 15:00:00 29,4 23,3 22 12 - - ESE 1015,1 16 -
03.06.2020 14:00:00 29,4 22,8 21 11 - - SE 1015,6 16 -
03.06.2020 13:00:00 30,0 23,9 15 8 - - SE 1016,1 16 -
03.06.2020 12:00:00 29,4 23,9 21 11 - - ESE 1016,9 16 -
03.06.2020 11:00:00 28,9 24,4 16 9 - - SE 1016,9 16 0,3
03.06.2020 10:00:00 27,8 25,0 8 4 - - E 1016,6 16 0,0
03.06.2020 09:00:00 26,1 24,4 8 4 - - NE 1016,6 13 0,0
03.06.2020 08:00:00 23,9 22,2 9 5 - - E 1016,3 3,2 0,3
03.06.2020 07:00:00 25,0 23,3 11 6 - - SE 1016,1 16 0,0
03.06.2020 06:00:00 25,0 23,9 8 4 - - SW 1015,9 16 -
03.06.2020 05:00:00 25,6 23,9 8 4 - - ENE 1015,6 16 -
03.06.2020 04:00:00 25,0 23,9 5 3 - - NE 1015,9 16 -
03.06.2020 03:00:00 25,0 23,9 0 0 - - N 1016,0 16 -
03.06.2020 02:00:00 25,0 24,4 0 0 - - N 1016,4 16 -
03.06.2020 01:00:00 25,0 23,9 8 4 - - E 1017,2 16 -
03.06.2020 00:00:00 25,6 23,9 8 4 - - ENE 1017,9 16 -
02.06.2020 23:00:00 24,4 23,3 8 4 - - NNE 1018,2 16 0,0
02.06.2020 22:00:00 25,0 22,8 0 0 - - N 1017,6 16 0,0
02.06.2020 21:00:00 24,4 22,2 13 7 - - SE 1016,9 10 11,2
02.06.2020 20:00:00 26,7 25,6 8 4 - - NNE 1016,4 16 -
02.06.2020 19:00:00 26,7 24,4 5 3 50 27 E 1016,4 8 6,1
02.06.2020 18:00:00 26,7 23,3 18 10 - - SE 1016,4 8 0,0
02.06.2020 17:00:00 29,4 23,3 29 16 - - E 1016,1 16 -
02.06.2020 16:00:00 30,6 23,3 26 14 - - ESE 1016,6 16 -
02.06.2020 15:00:00 31,7 22,8 28 15 - - ESE 1017,2 16 -
02.06.2020 14:00:00 31,1 22,2 21 11 - - ESE 1017,6 16 -
02.06.2020 13:00:00 31,7 22,8 24 13 - - E 1018,4 16 -
02.06.2020 12:00:00 31,1 22,2 28 15 - - ESE 1018,6 16 -
02.06.2020 11:00:00 31,1 23,3 24 13 - - ESE 1018,7 16 -
02.06.2020 10:00:00 30,0 23,9 21 11 - - ESE 1018,7 16 -
02.06.2020 09:00:00 29,4 23,9 18 10 - - ESE 1018,3 16 -
02.06.2020 08:00:00 28,3 23,3 11 6 - - ESE 1017,9 16 -
02.06.2020 07:00:00 26,7 22,8 9 5 - - ESE 1017,5 16 -
02.06.2020 06:00:00 26,7 22,8 13 7 - - E 1016,9 16 -
02.06.2020 05:00:00 26,7 22,8 15 8 - - E 1016,9 16 -
02.06.2020 04:00:00 26,1 22,8 11 6 - - E 1016,9 16 -
02.06.2020 03:00:00 26,1 22,2 8 4 - - E 1017,2 16 -
02.06.2020 02:00:00 26,7 21,7 9 5 - - ENE 1017,5 16 -
02.06.2020 01:00:00 26,7 22,2 11 6 - - E 1018,1 16 -
02.06.2020 00:00:00 27,2 23,3 15 8 - - E 1018,6 16 -
01.06.2020 23:00:00 27,8 23,3 15 8 - - E 1018,7 10 -
01.06.2020 22:00:00 28,3 22,8 16 9 - - E 1018,3 16 -
01.06.2020 21:00:00 28,3 23,3 18 10 - - E 1017,6 16 -
01.06.2020 20:00:00 28,9 22,8 24 13 - - E 1017,3 16 -
01.06.2020 19:00:00 29,4 23,3 26 14 - - E 1016,6 16 -
01.06.2020 18:00:00 30,0 23,9 26 14 - - E 1016,4 16 -
01.06.2020 17:00:00 31,7 23,9 24 13 - - ESE 1016,5 16 -
01.06.2020 16:00:00 32,2 23,9 21 11 - - ESE 1016,5 16 -
01.06.2020 15:00:00 32,2 23,9 18 10 - - ESE 1016,9 16 -
01.06.2020 14:00:00 31,7 24,4 18 10 - - ESE 1017,6 16 -
01.06.2020 13:00:00 32,2 24,4 15 8 - - E 1017,7 16 -
01.06.2020 12:00:00 31,7 24,4 13 7 - - SE 1017,8 16 -
01.06.2020 11:00:00 31,1 24,4 11 6 - - ESE 1017,9 16 -
01.06.2020 10:00:00 30,6 24,4 8 4 - - - 1017,9 16 -
01.06.2020 09:00:00 29,4 25,0 8 4 - - ENE 1017,6 16 -
01.06.2020 08:00:00 27,8 24,4 5 3 - - NE 1016,9 16 -
01.06.2020 07:00:00 25,6 23,9 0 0 - - N 1016,5 16 -
01.06.2020 06:00:00 24,4 23,3 0 0 - - N 1015,9 16 -
01.06.2020 05:00:00 24,4 22,8 0 0 - - N 1015,7 16 -
01.06.2020 04:00:00 25,0 23,3 0 0 - - N 1015,6 16 -
01.06.2020 03:00:00 25,0 22,8 0 0 - - N 1015,6 16 -
01.06.2020 02:00:00 27,2 22,8 5 3 - - SE 1016,2 16 -
01.06.2020 01:00:00 27,8 22,8 5 3 - - SE 1016,9 16 -
01.06.2020 00:00:00 27,2 22,8 5 3 - - ESE 1017,3 16 -
31.05.2020 23:00:00 27,8 22,8 9 5 - - SE 1017,1 16 -
31.05.2020 22:00:00 28,3 23,3 13 7 - - ESE 1016,8 16 -
31.05.2020 21:00:00 28,3 23,3 13 7 - - ESE 1016,0 16 -
31.05.2020 20:00:00 28,9 22,8 24 13 - - ESE 1015,8 16 -
31.05.2020 19:00:00 29,4 22,8 21 11 - - SE 1015,5 16 -
31.05.2020 18:00:00 30,6 22,8 18 10 - - SE 1014,9 16 -
31.05.2020 17:00:00 31,7 23,3 21 11 - - ESE 1014,6 16 -
31.05.2020 16:00:00 31,7 22,8 18 10 - - E 1015,2 16 -
31.05.2020 15:00:00 31,7 22,8 9 5 - - E 1015,9 16 -
31.05.2020 14:00:00 32,2 23,9 21 11 - - E 1016,5 16 -
31.05.2020 13:00:00 31,7 23,3 16 9 - - E 1016,7 16 -
31.05.2020 12:00:00 31,7 23,3 15 8 - - E 1017,0 16 -
31.05.2020 11:00:00 31,1 22,8 11 6 - - E 1017,2 16 -
31.05.2020 10:00:00 28,9 23,3 8 4 - - SE 1017,1 16 -
31.05.2020 09:00:00 28,9 23,9 8 4 - - SSE 1016,9 16 -
31.05.2020 08:00:00 27,2 24,4 0 0 - - N 1016,3 16 -
31.05.2020 07:00:00 25,0 23,3 0 0 - - N 1015,8 16 -
31.05.2020 06:00:00 24,4 23,3 0 0 - - N 1014,9 16 -

tt = temperature
td = dewpoint
ff = wind speed
fx = gusts
dd = wind direction
ppp = reduced air pressure
vv = visibility
rr = precipitation

Next stations